Showing default

LEMUR 2 KADI, 43184

Orbit data source: Space-Track

LEMUR 2 KADI, 43184 is a payload satellite owned by Spire (US) in SSO that was launched on Thu, 01 Feb 2018 UTC via a SOYUZ-2-1A launch vehicle from the Vostochny Cosmodrome (VOSTO). Payloads include a variety of satellites, spacecraft, and rockets equipped with specific instruments for various scientific and technological missions. These include communications satellites like Starlink; space stations such as the ISS; scientific satellites like the Hubble; Earth observation satellites from companies like Planet Labs, Umbra, and HawkEye 360; GPS; miniature CubeSats for education and research; and military/defense satellites.

Loading next visibility...
LEMUR 2 KADI details
Identifier
43184, 2018-014E
Orbit
SSO
Last TLE update8 hours ago
Origin
Flag of USSpire (US)
ManufacturerSpire/Glasgow
MissionOperational Commercial Com/MetRO
Bus & MotorCUBESAT 3U, Unknown motor
Mass4.6 kg wet, 4.6 kg dry
Launch date (UTC)
2018-02-01 (7 years ago)
Launch vehicle
SOYUZ-2-1A
Launch site
Vostochny Cosmodrome (VOSTO)
Object type
Payload
Rocket body
Debris
Shape & HBRBox + 2 Pan, 0.7 m
Radar Cross Section0.124 m², Small (<0.1 m²)

Expand to show TLE details & history

TLE from 8 hours ago
0 LEMUR 2 KADI
1 43184U 18014E   24361.27361645  .00030419  00000-0  12361-2 0  9996
2 43184  97.5413 263.6171 0010905  35.1321 325.0633 15.24454339377916
Epoch: 2024-12-26T06:34Z
Definitive object data (Epoch: 2024-12-26T06:34:00.461Z)
Latitude-0.00003°
Longitude69.85981°
Altitude489.376 km
Speed7.624 km/s
True Right ascension17h 34m 28s
True Declination0° 00' 00"
Sunlit
Object was in daylight at TLE epoch
Visualization TLE readout
Latitude-68.46092°
Longitude89.6627°
Altitude519.888 km
Speed7.601 km/s
Apparent Right ascension23h 33m 32s
Apparent Declination-63° 48' 11"
Sunlit
Object is in daylight
Visualization observer readout
Local Sidereal Time13:30:06
Azimuth154° SSE
Elevation-60.631°
Doppler factor1
Orbital elements
Apogee altitude496.879 km
Perigee altitude481.901 km
Semi-major axis6,867.527 km
Eccentricity0.0010905
Inclination97.5413°
RAAN263.6171°
Arg. of periapsis35.1321°
True anomaly324.99166°
Mean anomaly325.0633°
Eccentric anomaly325.02749°
Mean motion3.81367 °/min
BSTAR0.0012361
Orbital period94.4 mins
Loading maneuver chart data...
Loading historical data...
Loading historical data...
Loading historical data...
Loading historical data...
Loading historical data...
Loading historical data...
Loading historical data...

LEMUR 2 KADI Visibility forecast

Observer location: undefined°, undefined

Span
Click to sort rows by Start time (UTC) header in descending order
Start Az.
Max El. time (UTC)
Max El. Az.
Max El.
End time (UTC)
End Az.
6 mins2024-12-26 17:43:18.993Z164.258° S2024-12-26 17:46:18.993Z33.55° NE44.67°2024-12-26 17:49:18.993Z349.622° N
5 mins2024-12-27 06:46:18.993Z1.233° NNE2024-12-27 06:48:18.993Z277.873° WNW42.766°2024-12-27 06:51:18.993Z202.561° SW
|